[[{"header":{"parameterUnit":"m.s-1","parameterCategory":1,"la1":30.2991,"la2":30.254,"lo1":-89.0895,"lo2":-89.0444,"dy":0.0017,"dx":0.0017,"nx":28,"ny":28,"refTime":"2024-05-22T09:00:00:Z","depth":0,"parameterNumber":2,"parameterNumberName":"U-component_of_WINDS"},"data":[0,0,0,0,0,0,0,0,0,0,0,0,0,0,0,0,0,0,0,0,0,0,0,0,0,0,0,0,0,0,0,0,0,0,0,0,0,0,0,0,0,0,0,0,0,0,0,0,0,0,0,0,0,0,0,0,0,0,-2.2541,-2.2541,0,-2.2495,-2.2495,-2.2494,-2.2456,-2.2456,-2.2455,-2.2455,-2.2407,-2.2406,-2.2405,0,0,0,0,0,0,0,0,0,0,0,0,0,-2.2595,-2.2594,-2.2541,-2.2541,-2.254,-2.2496,-2.2495,-2.2494,-2.2456,-2.2456,-2.2455,-2.2455,-2.2407,-2.2406,-2.2405,0,0,0,0,0,0,0,0,0,0,0,0,0,-2.2563,-2.2594,-2.2541,-2.2516,-2.2513,-2.2496,-2.2495,-2.2494,-2.2456,-2.2456,-2.2455,-2.2454,-2.2407,-2.2406,-2.2405,-2.2409,0,0,-2.2401,-2.24,0,0,0,0,0,0,0,0,-2.2565,-2.2561,-2.252,-2.2517,-2.2514,-2.2481,-2.2496,-2.2465,-2.2456,-2.2478,-2.2455,-2.2454,-2.2432,-2.2428,-2.2421,-2.2407,-2.2405,-2.2401,-2.24,-2.2399,-2.2399,0,0,0,0,0,0,0,-2.2567,-2.2563,-2.2523,-2.2519,-2.2516,-2.2506,-2.2501,-2.249,-2.2459,-2.2476,-2.2473,-2.2468,-2.243,-2.2423,-2.242,-2.2404,-2.2401,-2.2399,-2.2399,-2.2398,-2.2392,-2.2392,0,0,0,0,0,0,-2.2573,-2.2565,-2.2524,-2.2522,-2.2538,-2.2506,-2.25,-2.2492,-2.2459,-2.2453,-2.2469,-2.2466,-2.2425,-2.2421,-2.2418,-2.2421,-2.2399,-2.2398,-2.2397,-2.2391,-2.2392,-2.2392,0,0,0,0,0,0,-2.2575,-2.257,-2.2526,-2.2542,-2.2536,-2.2506,-2.2497,-2.2492,-2.2484,-2.2453,-2.2447,-2.2467,-2.2424,-2.242,-2.2412,-2.2419,-2.2397,-2.2396,-2.239,-2.2391,-2.2392,-2.2427,0,0,0,0,0,0,-2.2576,-2.2571,-2.2572,-2.2543,-2.2535,-2.2521,-2.2498,-2.2491,-2.2482,-2.2479,-2.245,-2.2445,-2.2424,-2.2414,-2.241,-2.2416,-2.2395,-2.2389,-2.2391,-2.2392,-2.2425,-2.2429,-2.2432,0,0,0,0,0,-2.2578,-2.2583,-2.2572,-2.2567,-2.2536,-2.2521,-2.2517,-2.2493,-2.2483,-2.2483,-2.2464,-2.2446,-2.2419,-2.2413,-2.2409,-2.2415,-2.2389,-2.239,-2.2392,-2.2423,-2.2428,-2.2432,0,0,0,0,0,0,-2.2612,-2.2578,-2.2566,-2.2561,-2.2545,-2.2515,-2.2515,-2.2499,-2.2484,-2.2482,-2.2453,-2.2447,-2.2442,-2.2428,-2.2422,-2.2418,-2.2401,-2.2402,-2.2427,-2.2431,-2.2435,-2.2438,-2.2394,0,0,0,0,0,-2.262,-2.2611,-2.2581,-2.258,-2.2573,-2.2546,-2.2538,-2.2522,-2.2503,-2.2495,-2.2475,-2.2458,-2.2445,-2.2438,-2.2424,-2.2423,-2.2416,-2.2425,-2.2429,-2.2432,-2.2432,-2.2431,-2.2435,-2.2397,-2.2397,-2.2397,0,0,-2.2634,-2.2614,-2.261,-2.2587,-2.2572,-2.2563,-2.254,-2.2531,-2.2524,-2.2494,-2.2485,-2.247,-2.2449,-2.2444,-2.2441,-2.2432,-2.2442,-2.2434,-2.2436,-2.2435,-2.2433,-2.2436,-2.244,-2.2398,-2.2398,-2.2398,0,0,-2.2656,-2.264,-2.2637,-2.2623,-2.2601,-2.2584,-2.2584,-2.2557,-2.2546,-2.2537,-2.2514,-2.2506,-2.2485,-2.2471,-2.2461,-2.2479,-2.2462,-2.2476,-2.2494,-2.2494,-2.2497,-2.2499,-2.2506,-2.2508,-2.2477,-2.2477,-2.2477,0,-2.2676,-2.2662,-2.2638,-2.2631,-2.2622,-2.2595,-2.2592,-2.258,-2.2555,-2.2549,-2.2539,-2.2514,-2.2497,-2.2489,-2.2494,-2.2487,-2.2486,-2.2478,-2.2498,-2.2501,-2.2502,-2.2508,-2.2511,-2.2479,-2.2479,-2.2478,-2.2478,0,-2.2688,-2.2679,-2.268,-2.2657,-2.2648,-2.2643,-2.2619,-2.2612,-2.2597,-2.2581,-2.2572,-2.2552,-2.2535,-2.2532,-2.2517,-2.2522,-2.2517,-2.2504,-2.2487,-2.2508,-2.2513,-2.2515,-2.2482,-2.2481,-2.248,-2.248,0,0,-2.2728,-2.2694,-2.2694,-2.2684,-2.2659,-2.2651,-2.2646,-2.263,-2.2625,-2.2609,-2.2604,-2.2588,-2.2576,-2.2565,-2.2548,-2.2547,-2.2564,-2.2533,-2.2533,-2.2539,-2.2569,-2.2579,-2.2582,-2.2553,-2.2553,-2.2553,-2.257,0,-2.2745,-2.2734,-2.2713,-2.2708,-2.27,-2.2676,-2.2671,-2.2655,-2.264,-2.2631,-2.2614,-2.2604,-2.2588,-2.2581,-2.258,-2.2562,-2.2569,-2.2561,-2.2547,-2.2547,-2.2552,-2.2584,-2.2594,-2.2611,-2.2572,-2.2573,-2.2573,0,-2.2763,-2.2749,-2.2744,-2.2721,-2.2716,-2.2713,-2.2697,-2.2688,-2.2671,-2.266,-2.2649,-2.2631,-2.2624,-2.261,-2.26,-2.2595,-2.2589,-2.2579,-2.2579,-2.2576,-2.256,-2.2581,-2.2616,-2.2619,-2.2576,-2.2575,-2.2575,0,-2.2792,-2.2773,-2.2767,-2.2759,-2.2732,-2.273,-2.2719,-2.27,-2.2692,-2.2679,-2.2673,-2.2659,-2.2651,-2.264,-2.2619,-2.2611,-2.2612,-2.2596,-2.2603,-2.2604,-2.2603,-2.2603,-2.2637,-2.2601,-2.2601,-2.2601,-2.2601,0,-2.2813,-2.281,-2.278,-2.2777,-2.2774,-2.2751,-2.2748,-2.2735,-2.2719,-2.2712,-2.2691,-2.2685,-2.2658,-2.265,-2.2633,-2.2628,-2.2625,-2.2616,-2.2611,-2.2617,-2.2618,-2.2611,-2.2609,-2.2601,-2.2601,-2.2601,-2.2601,0,-2.2844,-2.2824,-2.2816,-2.2792,-2.2786,-2.2785,-2.2763,-2.2759,-2.2744,-2.2736,-2.2733,-2.2709,-2.2698,-2.2676,-2.2659,-2.2648,-2.2647,-2.2639,-2.2653,-2.265,-2.2658,-2.2657,-2.2687,-2.269,-2.2653,-2.2654,-2.2654,0,-2.2858,-2.2856,-2.2832,-2.2826,-2.2816,-2.2807,-2.2799,-2.2776,-2.2769,-2.275,-2.2748,-2.2736,-2.2724,-2.2708,-2.2689,-2.2676,-2.2668,-2.2679,-2.2665,-2.2672,-2.2667,-2.2667,-2.2667,-2.2682,-2.2682,-2.2683,-2.2683,0,-2.2885,-2.2876,-2.2865,-2.2852,-2.2843,-2.2832,-2.2819,-2.2815,-2.279,-2.2783,-2.2772,-2.2763,-2.2747,-2.2734,-2.2719,-2.2707,-2.2691,-2.2688,-2.2689,-2.2694,-2.2702,-2.2698,-2.266,-2.2687,-2.2687,-2.2686,-2.2686,-2.2686,-2.2908,-2.2905,-2.2888,-2.2877,-2.2866,-2.2854,-2.285,-2.2834,-2.2825,-2.2809,-2.2797,-2.2787,-2.277,-2.2748,-2.2738,-2.273,-2.2722,-2.2723,-2.2723,-2.2724,-2.2726,-2.2705,-2.2727,-2.2727,-2.2727,-2.2727,-2.2726,0,-2.2934,-2.2922,-2.2913,-2.2896,-2.2888,-2.2874,-2.286,-2.2854,-2.2845,-2.2831,-2.2821,-2.2809,-2.2798,-2.2778,-2.2765,-2.2763,-2.2755,-2.276,-2.276,-2.2757,-2.2734,-2.2734,-2.2767,-2.2767,-2.2767,-2.2767,-2.2767,-2.2767,-2.2946,-2.2941,-2.293,-2.2919,-2.2907,-2.2897,-2.289,-2.288,-2.2868,-2.2856,-2.2847,-2.2834,-2.2818,-2.2804,-2.2794,-2.2788,-2.2784,-2.2792,-2.2784,-2.2762,-2.2759,-2.2755,-2.2755,-2.2791,-2.2791,-2.2808,-2.2808,-2.2808]},{"header":{"parameterUnit":"m.s-1","parameterCategory":1,"la1":30.2991,"la2":30.254,"lo1":-89.0895,"lo2":-89.0444,"dy":0.0017,"dx":0.0017,"nx":28,"ny":28,"refTime":"2024-05-22T09:00:00:Z","depth":0,"parameterNumber":3,"parameterNumberName":"V-component_of_WINDS"},"data":[0,0,0,0,0,0,0,0,0,0,0,0,0,0,0,0,0,0,0,0,0,0,0,0,0,0,0,0,0,0,0,0,0,0,0,0,0,0,0,0,0,0,0,0,0,0,0,0,0,0,0,0,0,0,0,0,0,0,4.2011,4.2011,0,4.1993,4.1993,4.1993,4.1997,4.1997,4.1997,4.1998,4.1975,4.1974,4.1973,0,0,0,0,0,0,0,0,0,0,0,0,0,4.2045,4.2045,4.2011,4.2011,4.2011,4.1993,4.1993,4.1993,4.1997,4.1997,4.1997,4.1998,4.1975,4.1974,4.1973,0,0,0,0,0,0,0,0,0,0,0,0,0,4.2029,4.2044,4.2011,4.2011,4.201,4.1993,4.1993,4.1993,4.1996,4.1997,4.1998,4.1998,4.1975,4.1974,4.1973,4.1954,0,0,4.1968,4.1968,0,0,0,0,0,0,0,0,4.203,4.2028,4.2011,4.2011,4.201,4.1998,4.1997,4.1979,4.1996,4.2002,4.1998,4.1998,4.1982,4.198,4.1975,4.1953,4.1952,4.1968,4.1968,4.1967,4.1967,0,0,0,0,0,0,0,4.2031,4.2029,4.2004,4.2011,4.201,4.201,4.2008,4.1993,4.1989,4.2001,4.2001,4.2,4.1982,4.1977,4.1975,4.1951,4.1968,4.1967,4.1966,4.1966,4.1912,4.1912,0,0,0,0,0,0,4.2033,4.2029,4.2004,4.2003,4.2022,4.2009,4.2007,4.2001,4.1989,4.1988,4.1999,4.2,4.1979,4.1976,4.1974,4.1951,4.1967,4.1966,4.1965,4.1913,4.1912,4.1912,0,0,0,0,0,0,4.2034,4.2031,4.2005,4.2017,4.2013,4.2008,4.2001,4.2001,4.1996,4.1988,4.1986,4.1995,4.1979,4.1976,4.1959,4.195,4.1965,4.1964,4.1914,4.1913,4.1912,4.1905,0,0,0,0,0,0,4.2035,4.2031,4.2024,4.2016,4.2013,4.1992,4.2001,4.2,4.1994,4.1994,4.1983,4.1982,4.1979,4.1961,4.1958,4.1949,4.1963,4.1914,4.1913,4.1912,4.1906,4.1904,4.1902,0,0,0,0,0,4.2036,4.2022,4.2024,4.2021,4.2005,4.1991,4.1989,4.1987,4.1993,4.1986,4.1981,4.1982,4.1952,4.1959,4.1956,4.1946,4.1915,4.1914,4.1912,4.1907,4.1904,4.1902,0,0,0,0,0,0,4.2028,4.2021,4.2023,4.2007,4.2,4.1992,4.1983,4.1985,4.1975,4.1976,4.1973,4.197,4.1953,4.1948,4.1956,4.1927,4.1934,4.1932,4.1931,4.1929,4.1927,4.1928,4.1961,0,0,0,0,0,4.2024,4.2015,4.2009,4.1995,4.1992,4.1988,4.1982,4.1982,4.1974,4.197,4.1964,4.1955,4.1944,4.1936,4.1925,4.1905,4.1903,4.1897,4.1895,4.1894,4.1892,4.1881,4.1878,4.1907,4.1907,4.1907,0,0,4.2016,4.2012,4.2006,4.1994,4.1988,4.1978,4.1985,4.1974,4.1966,4.1968,4.1952,4.1947,4.1937,4.1919,4.1911,4.1914,4.1883,4.1892,4.1891,4.189,4.1879,4.1877,4.1874,4.1907,4.1907,4.1907,0,0,4.1997,4.1993,4.1981,4.1976,4.1968,4.1966,4.1963,4.1955,4.1952,4.1937,4.1939,4.1928,4.1909,4.1901,4.1895,4.1874,4.1875,4.187,4.1861,4.185,4.1848,4.1846,4.1838,4.1836,4.1869,4.1869,4.1869,0,4.1988,4.1974,4.1974,4.1963,4.1957,4.1961,4.1948,4.1942,4.1931,4.1926,4.1931,4.1907,4.19,4.188,4.1876,4.187,4.1866,4.1871,4.1849,4.1847,4.1845,4.1837,4.1834,4.1868,4.1868,4.1868,4.1868,0,4.1963,4.1953,4.1944,4.1935,4.1928,4.1916,4.1914,4.1907,4.1907,4.1904,4.1888,4.1881,4.1868,4.1864,4.1863,4.1844,4.1846,4.185,4.1857,4.1841,4.1834,4.1832,4.1867,4.1868,4.1868,4.1868,0,0,4.1937,4.1929,4.1926,4.1922,4.1914,4.1906,4.1894,4.1883,4.1877,4.1869,4.1859,4.1843,4.1846,4.1839,4.1837,4.1829,4.1812,4.1833,4.1833,4.1829,4.1791,4.1788,4.1785,4.1813,4.1813,4.1812,4.1792,0,4.1917,4.1897,4.1898,4.1879,4.187,4.1873,4.1863,4.1856,4.1853,4.1844,4.184,4.1829,4.1834,4.183,4.1821,4.1816,4.1805,4.1818,4.1802,4.1802,4.1805,4.1782,4.1779,4.176,4.1789,4.1789,4.1788,0,4.189,4.1884,4.1865,4.1859,4.1855,4.1846,4.1837,4.1828,4.182,4.1819,4.1812,4.1812,4.1799,4.1807,4.1788,4.1797,4.1791,4.1788,4.1787,4.1785,4.1794,4.1779,4.1753,4.175,4.1784,4.1784,4.1785,0,4.1874,4.1859,4.1846,4.1843,4.1836,4.1829,4.1825,4.1819,4.1813,4.1804,4.18,4.1789,4.1783,4.1775,4.1772,4.1778,4.1753,4.1761,4.1751,4.1751,4.1745,4.1746,4.1718,4.1742,4.1742,4.1742,4.1742,0,4.1851,4.1839,4.1839,4.1831,4.1817,4.1818,4.1804,4.1801,4.1795,4.1786,4.1787,4.1778,4.1775,4.1765,4.1763,4.1748,4.1745,4.1743,4.1742,4.1742,4.1743,4.1738,4.1739,4.1741,4.1741,4.1741,4.1741,0,4.1829,4.1829,4.1815,4.181,4.1808,4.1799,4.1794,4.1786,4.1784,4.1772,4.1769,4.1764,4.1753,4.175,4.1735,4.1734,4.1716,4.1717,4.1719,4.1719,4.1709,4.171,4.1677,4.1673,4.1699,4.1699,4.1699,0,4.1815,4.1806,4.1801,4.1796,4.1792,4.1783,4.1778,4.1777,4.1771,4.1763,4.1755,4.1744,4.1736,4.1717,4.1712,4.1701,4.1701,4.169,4.1699,4.17,4.17,4.1701,4.17,4.1688,4.1688,4.1688,4.1688,0,4.1789,4.179,4.1782,4.1775,4.1768,4.1762,4.1756,4.1751,4.175,4.1742,4.1732,4.1725,4.1711,4.17,4.1689,4.1684,4.1685,4.1685,4.1682,4.1682,4.1684,4.1683,4.1714,4.1686,4.1686,4.1686,4.1686,4.1686,4.1771,4.1763,4.1759,4.175,4.1746,4.1741,4.1733,4.173,4.1722,4.1712,4.1712,4.17,4.1693,4.1679,4.1673,4.1663,4.1666,4.1662,4.166,4.1659,4.1659,4.1686,4.1661,4.1661,4.1661,4.1661,4.1661,0,4.1745,4.1743,4.1735,4.1727,4.1721,4.1724,4.1718,4.1711,4.1702,4.1695,4.1687,4.1675,4.1664,4.1659,4.1648,4.1641,4.1641,4.1638,4.1639,4.1637,4.1657,4.166,4.1638,4.1638,4.1638,4.1638,4.1638,4.1638,4.1731,4.1719,4.1719,4.1704,4.1702,4.1691,4.1687,4.1682,4.1677,4.1664,4.1656,4.1653,4.1647,4.1636,4.1626,4.1625,4.162,4.1617,4.1616,4.1634,4.1636,4.1638,4.1642,4.1616,4.1616,4.1597,4.1597,4.1597]}]]